Temperature
14 14 13 12 12 11 11 11 11 11 11 11 10 10 10 10 10 10 10 10 10 9 9 9 9 9 8 8 8 8 8 8 8 8 8 8 8 8 8 8 9 9 9
14 13 12 12 11 11 11 11 10 10 10 10 10 10 10 10 10 9 9 9 9 9 9 9 9 8 8 8 8 8 8 8 7 7 7 7 7 8 8 8 8 8 8
14 13 12 11 11 11 10 10 10 10 10 10 10 9 9 9 9 9 9 9 9 9 9 8 8 8 8 8 8 7 7 7 7 7 7 7 7 7 7 8 8 8 8
14 13 12 11 11 10 10 10 10 9 9 9 9 9 9 9 9 9 9 9 8 8 8 8 8 8 8 7 7 7 7 7 7 7 6 7 6 6 6 7 7 7 7
13 12 12 11 10 10 10 9 9 9 9 9 9 9 9 9 9 8 8 8 8 8 8 8 8 8 7 7 7 7 7 7 7 6 6 6 6 6 6 6 6 7 7
13 12 11 11 10 10 9 9 9 9 9 8 8 8 8 8 8 8 8 8 8 8 8 7 7 7 7 7 7 7 7 6 6 6 6 6 6 6 6 6 6 6 6
12 11 10 10 9 9 9 8 8 8 8 8 8 8 8 8 8 8 7 7 7 7 7 7 7 7 7 7 7 7 6 6 6 6 6 6 6 6 6 6 5 5 6
11 10 10 9 9 9 8 8 8 8 8 8 8 8 8 8 8 7 7 7 7 7 7 7 7 7 7 6 6 6 6 6 6 6 6 6 5 5 5 5 5 5 5
10 10 9 9 8 8 8 8 8 8 8 7 7 8 8 7 7 7 7 7 7 7 7 7 7 7 7 6 6 6 6 6 6 6 5 5 5 5 5 5 5 5 4
10 9 9 8 8 8 7 7 7 7 7 7 7 7 7 7 7 7 7 7 7 7 7 7 7 7 6 6 6 6 6 6 5 5 5 5 5 5 5 5 5 5 5
9 8 8 8 7 7 7 7 7 7 7 7 7 7 7 7 7 7 6 6 6 6 6 6 6 6 6 6 6 6 6 5 5 5 5 5 5 5 5 4 5 5 4
8 8 7 7 7 7 7 7 7 7 7 7 6 7 7 7 7 7 6 6 6 6 6 6 6 6 6 6 6 6 6 5 5 5 5 5 5 5 4 4 4 4 4
8 7 7 7 6 6 6 6 6 6 6 6 6 6 6 6 6 6 6 6 6 6 6 6 6 6 6 6 6 5 5 5 5 5 5 5 4 4 4 4 4 4 4
7 7 6 6 6 6 6 6 6 6 6 6 6 6 6 6 6 6 6 6 6 6 5 5 5 5 5 5 5 5 5 5 5 4 4 4 4 4 4 4 4 4 4
6 6 6 6 5 5 5 5 6 6 6 6 6 6 6 6 6 6 6 5 5 5 5 5 5 5 5 5 5 5 5 5 4 4 4 4 4 4 4 3 3 3 3
5 5 5 5 5 5 5 5 5 5 6 6 6 6 5 5 5 5 5 5 5 5 5 5 5 5 5 5 5 5 4 4 4 4 4 4 4 3 3 3 3 3 3
5 4 4 4 4 5 5 5 5 5 5 5 5 5 5 5 5 5 5 5 5 5 4 4 5 5 5 4 4 4 4 4 4 4 4 3 3 3 3 3 3 3 3
4 4 4 4 4 4 4 4 5 5 5 5 5 5 5 5 5 5 5 5 5 4 4 4 4 4 4 4 4 4 4 4 4 3 3 3 3 3 3 3 3 3 2
4 3 3 3 4 4 4 4 4 4 5 5 5 5 5 5 5 5 4 4 4 4 4 4 4 4 4 4 4 4 4 3 3 3 3 3 3 3 2 3 3 2 2
3 3 3 3 3 4 4 4 4 4 4 4 5 4 4 4 4 4 4 4 4 4 4 4 4 4 4 4 3 3 3 3 3 3 2 2 2 2 2 2 2 2 2
3 3 3 3 3 3 3 3 4 4 4 4 4 4 4 4 4 4 4 4 4 4 3 3 3 3 3 3 3 3 3 3 2 2 2 2 2 2 2 2 2 2 2
2 2 2 2 2 2 3 3 3 3 3 3 4 4 3 3 3 3 3 3 3 3 3 3 3 3 3 2 2 2 2 2 2 2 2 2 1 1 1 1 1 1 1
1 1 1 1 2 2 2 2 2 3 3 3 3 3 3 3 3 3 3 3 3 2 2 2 2 2 2 2 2 2 2 2 2 1 1 1 1 1 1 1 1 1 1
1 1 1 1 1 1 1 2 2 2 2 3 3 3 3 2 2 2 2 2 2 2 2 2 2 2 2 2 2 2 1 1 1 1 1 1 1 1 1 1 1 1 0
0 0 1 1 0 1 1 1 2 2 2 2 2 2 2 2 2 2 2 2 1 1 1 1 1 1 1 1 1 1 1 1 1 1 1 1 1 1 0 0 0 0 -0
-0 -0 0 0 0 0 1 1 1 1 1 1 1 1 1 1 1 1 1 1 1 1 1 1 1 1 1 1 1 1 1 0 0 0 0 0 -0 -0 -0 -0 -0 -1 -1
Wind_Speed
7 7 7 7 6 5 5 4 4 3 3 2 1 1 1 1 1 1 1 2 2 2 1 1 1 1 2 2 2 2 3 3 3 3 5 5 5 5 4 3 3 4 5
7 7 7 7 6 6 5 5 4 3 3 2 2 2 2 2 2 2 2 2 2 2 2 2 2 2 2 3 2 2 2 3 2 2 3 3 3 3 4 4 3 3 3
8 8 7 6 6 5 5 4 4 4 3 3 2 1 1 1 1 1 2 3 3 3 3 3 2 3 3 3 4 3 4 3 3 2 2 2 3 3 3 3 3 3 3
7 8 7 7 6 5 5 4 4 4 3 3 3 3 2 2 2 2 2 2 3 3 3 3 3 3 3 4 4 4 4 3 3 3 3 4 3 2 3 3 3 3 3
7 7 7 6 6 5 5 4 4 3 3 3 3 3 2 2 2 1 2 2 2 2 3 3 3 3 4 4 4 4 4 3 4 3 3 4 3 3 3 5 5 3 3
5 6 6 5 5 5 5 4 4 3 3 3 3 3 3 2 2 2 2 2 2 2 2 3 3 4 4 4 4 4 5 4 4 4 3 3 3 3 3 4 5 5 4
5 5 5 5 5 5 5 5 5 4 3 3 3 3 3 3 2 2 2 2 2 2 3 3 3 3 4 4 4 4 5 5 4 4 4 3 3 3 3 3 5 6 5
4 4 4 5 5 5 5 5 5 4 4 3 3 3 2 2 2 2 2 3 2 3 3 3 3 4 4 4 4 3 4 4 4 5 4 3 3 2 2 3 4 5 5
4 3 4 4 4 5 5 5 4 3 3 3 3 3 2 2 2 2 2 2 2 2 3 3 3 3 3 3 3 3 4 4 4 4 3 3 2 2 2 3 3 3 5
4 4 3 3 3 3 3 3 3 3 2 3 3 2 2 2 2 2 2 2 2 2 3 3 2 2 3 3 3 3 3 3 3 3 3 2 2 2 2 2 2 2 3
3 3 3 3 3 2 2 2 2 2 2 2 2 2 2 2 1 2 2 2 2 1 2 2 2 2 2 2 3 3 3 3 3 3 3 3 2 2 2 1 1 2 2
3 3 3 3 2 2 2 1 2 2 2 2 2 2 2 1 1 2 2 2 1 1 2 2 2 2 2 2 2 3 2 2 3 3 2 2 2 1 1 1 1 2 2
4 4 3 2 2 1 1 0 1 1 1 1 1 1 1 1 2 2 2 2 1 1 1 1 2 2 2 1 2 2 2 2 2 2 2 2 1 1 1 1 1 1 2
4 3 2 2 2 1 1 1 1 1 1 1 1 1 1 1 2 1 1 1 1 1 1 1 2 2 2 1 1 1 1 1 1 1 1 1 2 2 1 1 1 1 1
3 3 3 2 2 2 2 2 2 2 1 1 1 1 1 1 0 1 1 0 1 1 1 1 1 2 2 1 1 1 0 1 1 1 0 0 1 1 1 1 1 0 1
3 3 3 3 2 2 2 2 2 2 1 1 1 1 1 1 0 0 0 0 1 1 0 1 1 1 2 3 2 1 1 1 1 1 1 1 1 1 2 2 2 1 1
3 3 4 3 3 2 2 2 2 2 2 1 1 0 1 1 1 0 0 0 1 1 0 1 1 1 2 2 2 2 2 1 1 1 1 1 1 2 2 3 4 4 4
2 2 3 4 4 3 2 2 2 1 1 1 1 0 0 1 1 0 0 0 0 1 1 1 1 1 2 3 2 3 2 2 2 1 1 2 1 1 2 3 3 4 4
2 2 2 3 4 4 3 2 2 2 2 2 2 1 0 1 1 1 0 1 1 1 1 1 1 1 2 3 3 3 2 2 2 2 3 2 2 3 3 3 3 3 4
3 3 3 3 3 4 4 3 2 2 2 2 2 2 1 1 1 1 1 1 1 1 1 2 1 1 1 3 4 4 2 3 2 3 3 4 4 3 4 3 2 2 2
4 3 3 3 3 4 4 3 3 3 3 2 2 2 2 1 2 2 2 2 2 2 2 2 2 2 3 3 5 5 3 2 2 3 2 3 5 5 6 4 2 2 2
4 4 3 4 4 4 4 4 3 3 3 3 3 3 3 2 3 3 3 3 3 2 2 3 3 3 3 3 4 6 5 4 3 2 2 3 5 6 6 5 4 4 4
3 3 3 3 4 4 4 4 4 3 3 3 3 3 3 3 3 3 3 3 3 2 2 2 2 3 3 3 5 5 6 6 4 3 4 5 5 6 5 5 5 4 3
4 4 3 3 4 4 4 4 4 3 3 3 3 3 3 3 3 3 3 2 2 2 2 2 2 2 3 3 3 3 3 4 4 3 4 5 6 5 5 4 4 3 2
3 3 3 3 4 4 5 5 4 4 3 3 3 3 3 3 3 3 3 3 2 2 2 1 1 2 2 3 4 3 2 2 3 3 2 3 3 4 3 3 3 2 2
3 3 4 4 4 4 5 5 5 4 4 3 3 3 3 3 3 4 4 6 5 7 6 6 4 3 4 5 5 5 5 5 5 4 3 3 2 2 2 2 2 2 2
Wind_Direction
173 159 159 154 150 144 143 152 159 166 159 169 191 203 219 239 239 215 218 237 244 246 231 239 240 253 250 255 262 278 284 288 291 297 297 283 265 256 254 258 260 251 243
168 161 159 153 157 153 152 161 168 172 171 173 195 206 226 234 231 226 226 232 221 234 248 223 226 232 250 257 253 257 264 274 280 284 302 299 295 277 268 254 249 256 251
172 166 163 157 157 156 158 171 178 179 176 172 177 206 243 281 255 249 235 230 219 221 231 225 225 228 233 242 243 239 246 261 265 258 247 270 268 301 276 255 253 244 257
170 166 164 163 163 160 159 169 179 180 176 172 179 187 209 236 254 245 249 253 230 219 225 230 230 228 233 242 244 246 247 246 257 264 252 252 261 278 298 297 275 260 258
166 162 160 161 160 156 161 171 176 178 179 185 186 192 216 239 254 254 251 261 256 237 231 238 236 233 238 240 239 245 246 243 247 253 262 273 272 262 264 287 296 292 271
148 145 143 141 149 152 158 170 174 184 187 189 190 191 203 227 250 269 259 265 268 264 248 251 249 245 241 239 237 236 238 240 243 247 248 257 263 264 261 273 288 294 288
131 126 134 151 160 163 167 175 177 187 188 190 199 207 205 209 224 251 264 272 279 280 260 259 253 255 245 238 238 240 240 238 237 237 245 249 255 260 267 271 283 291 297
116 128 145 154 165 170 172 178 185 186 188 195 208 211 204 209 228 244 258 257 261 265 261 255 255 252 250 249 240 244 243 237 232 236 238 245 248 247 248 254 271 290 298
123 130 135 144 162 171 180 187 186 187 191 195 204 211 206 211 226 239 252 263 269 277 275 266 257 251 247 247 240 238 241 233 233 234 232 241 254 251 254 245 241 250 282
120 127 129 134 145 162 175 181 182 188 196 195 206 224 215 214 224 237 246 249 261 271 269 274 270 266 251 245 243 241 235 231 234 226 225 243 259 257 256 253 256 246 255
114 112 111 113 119 130 161 181 184 186 196 204 212 219 227 223 229 242 256 249 251 254 264 272 271 269 258 250 242 241 237 229 233 234 229 245 259 258 259 264 266 262 250
96 95 94 90 86 111 142 176 185 193 205 214 219 211 217 213 234 255 263 260 247 252 253 271 281 281 281 265 241 253 249 237 237 234 225 240 250 261 261 252 271 271 264
75 75 78 83 81 75 91 148 225 223 207 205 216 214 211 221 244 256 261 262 243 259 266 276 280 295 297 279 250 254 250 239 241 230 214 224 218 251 253 269 284 300 310
69 61 61 65 64 58 44 11 317 296 252 216 213 213 226 244 250 259 262 262 246 238 244 266 277 287 297 290 278 267 266 270 253 223 202 215 214 220 214 255 280 318 338
57 47 35 35 39 29 14 357 341 341 324 283 222 225 233 248 282 282 265 264 253 262 244 276 296 302 297 292 300 266 53 61 63 71 79 303 288 272 281 259 243 290 305
27 24 18 19 22 12 347 333 331 337 336 312 261 217 192 198 189 247 259 310 315 316 281 272 292 315 313 327 358 34 113 97 86 67 62 37 62 40 0 344 334 303 284
8 6 4 359 354 343 332 321 325 338 342 325 320 218 187 178 178 229 107 290 311 326 338 314 304 305 324 2 41 45 78 94 101 104 88 50 41 28 53 26 22 16 3
9 1 354 350 344 337 339 345 351 1 1 348 334 317 149 142 135 104 62 326 343 346 344 325 325 356 2 28 42 43 69 82 75 75 84 86 69 49 60 57 40 28 17
19 10 360 350 343 342 344 11 12 6 19 24 17 12 53 136 140 121 316 306 329 352 7 15 10 24 16 40 54 57 92 77 60 54 58 69 80 52 49 61 52 33 23
34 22 12 9 359 349 356 18 19 14 11 10 6 4 9 103 119 119 51 24 25 14 39 27 14 34 49 45 60 66 90 77 59 49 52 48 52 46 37 53 67 46 9
29 25 24 14 0 353 5 18 21 5 354 9 23 21 22 76 84 81 64 56 54 51 46 39 26 36 43 46 54 57 75 84 70 56 44 43 44 37 35 35 48 54 20
27 25 30 15 4 2 13 20 14 358 9 34 46 45 40 55 66 78 65 56 60 55 51 48 32 29 35 46 57 55 52 56 77 67 52 51 44 38 37 38 47 41 28
25 23 30 18 8 7 15 20 3 5 24 45 50 52 51 58 69 83 75 57 56 56 53 55 47 33 33 43 52 55 48 42 55 68 61 53 44 36 39 43 40 33 40
16 17 25 26 12 9 16 15 9 16 42 56 52 52 60 60 59 66 74 71 60 60 59 56 55 42 37 43 49 58 58 52 53 59 54 46 43 41 38 33 35 40 52
11 16 22 26 13 12 19 18 14 23 46 57 56 55 58 68 63 60 61 69 64 77 76 69 92 82 48 26 36 53 59 63 71 65 54 43 38 36 32 31 32 33 36
16 21 22 25 17 16 24 20 16 28 50 59 55 56 57 61 71 71 60 54 59 57 55 55 59 58 50 47 53 56 60 64 72 73 72 50 38 37 33 27 18 19 24
Height
1460 1463 1465 1467 1469 1470 1471 1472 1474 1475 1475 1476 1477 1477 1478 1479 1479 1480 1480 1480 1480 1480 1479 1479 1479 1478 1477 1477 1477 1476 1476 1475 1475 1473 1471 1470 1469 1469 1469 1470 1470 1470 1470
1457 1459 1462 1464 1465 1467 1468 1469 1470 1471 1472 1473 1474 1475 1476 1476 1477 1477 1477 1477 1477 1477 1476 1476 1475 1475 1474 1474 1474 1473 1472 1472 1472 1471 1469 1467 1466 1465 1466 1466 1466 1466 1466
1452 1455 1458 1460 1461 1463 1464 1465 1467 1468 1469 1470 1471 1472 1473 1473 1473 1473 1474 1474 1474 1474 1473 1473 1472 1472 1471 1471 1470 1470 1470 1469 1469 1470 1470 1467 1464 1462 1461 1462 1462 1462 1462
1448 1451 1453 1455 1457 1459 1461 1462 1463 1465 1466 1467 1467 1468 1468 1469 1469 1470 1470 1470 1470 1470 1470 1469 1469 1468 1468 1467 1467 1467 1466 1466 1466 1466 1466 1466 1464 1462 1458 1458 1458 1458 1458
1444 1447 1449 1452 1454 1456 1457 1459 1460 1462 1463 1463 1464 1465 1466 1466 1467 1467 1467 1467 1467 1466 1466 1466 1465 1465 1464 1464 1464 1463 1463 1463 1462 1462 1462 1462 1461 1460 1459 1455 1453 1454 1454
1441 1444 1446 1449 1451 1453 1454 1456 1457 1458 1460 1460 1461 1462 1462 1463 1463 1463 1463 1463 1463 1463 1462 1462 1461 1461 1460 1460 1460 1459 1459 1459 1459 1458 1458 1458 1457 1457 1456 1453 1451 1450 1449
1439 1441 1443 1445 1447 1449 1451 1453 1454 1455 1457 1458 1458 1459 1460 1460 1460 1460 1460 1460 1459 1459 1458 1458 1458 1457 1456 1456 1456 1455 1455 1455 1455 1454 1454 1454 1454 1454 1454 1452 1449 1447 1446
1437 1439 1441 1443 1445 1446 1448 1449 1451 1452 1454 1455 1455 1456 1457 1457 1457 1457 1457 1457 1456 1455 1455 1455 1454 1453 1453 1452 1452 1451 1451 1451 1450 1450 1450 1450 1450 1450 1450 1450 1448 1445 1442
1437 1438 1440 1441 1442 1444 1445 1447 1448 1449 1451 1452 1453 1453 1453 1453 1454 1454 1454 1453 1453 1452 1452 1452 1451 1450 1449 1448 1448 1447 1447 1447 1446 1446 1446 1446 1446 1446 1446 1446 1446 1445 1441
1436 1437 1438 1439 1440 1442 1443 1445 1446 1447 1448 1449 1450 1450 1450 1450 1451 1451 1450 1450 1450 1449 1449 1448 1448 1447 1446 1445 1444 1444 1443 1443 1443 1443 1442 1442 1442 1443 1443 1442 1442 1442 1440
1435 1436 1437 1438 1439 1439 1441 1442 1443 1444 1445 1446 1447 1447 1447 1447 1447 1447 1447 1447 1447 1446 1445 1445 1444 1444 1443 1442 1441 1441 1440 1440 1439 1439 1439 1439 1439 1439 1439 1439 1439 1438 1437
1434 1435 1436 1437 1437 1438 1439 1440 1441 1442 1442 1443 1444 1444 1444 1444 1444 1444 1444 1444 1443 1443 1443 1442 1442 1441 1440 1439 1438 1438 1437 1436 1436 1436 1436 1436 1436 1435 1435 1435 1435 1435 1434
1434 1435 1435 1436 1436 1437 1437 1438 1438 1439 1440 1441 1441 1441 1441 1441 1441 1441 1441 1440 1440 1440 1440 1439 1439 1438 1438 1437 1436 1435 1434 1434 1434 1433 1433 1433 1433 1432 1433 1432 1432 1432 1431
1434 1435 1435 1435 1436 1436 1436 1436 1436 1437 1437 1438 1438 1438 1438 1438 1438 1438 1438 1438 1437 1437 1437 1437 1436 1436 1435 1434 1433 1433 1432 1432 1431 1431 1431 1431 1431 1430 1430 1430 1430 1430 1429
1434 1435 1435 1435 1435 1435 1435 1434 1435 1435 1435 1435 1435 1435 1436 1436 1436 1436 1435 1435 1435 1435 1434 1434 1434 1433 1433 1432 1431 1430 1430 1429 1429 1429 1429 1429 1428 1428 1429 1429 1428 1428 1427
1434 1434 1434 1434 1434 1433 1433 1433 1433 1432 1432 1432 1433 1433 1433 1434 1434 1433 1433 1433 1433 1432 1432 1432 1431 1431 1430 1430 1429 1429 1428 1427 1427 1427 1427 1427 1427 1427 1427 1427 1427 1427 1426
1434 1433 1433 1433 1432 1432 1432 1431 1431 1430 1430 1430 1430 1431 1431 1431 1431 1431 1431 1431 1430 1430 1430 1429 1429 1428 1428 1428 1427 1427 1426 1426 1426 1425 1425 1425 1425 1425 1425 1425 1425 1424 1424
1433 1432 1432 1431 1431 1431 1430 1430 1429 1429 1428 1428 1428 1429 1429 1429 1429 1429 1429 1429 1429 1429 1428 1428 1427 1427 1426 1426 1426 1426 1425 1425 1425 1425 1424 1424 1424 1424 1424 1423 1423 1423 1422
1431 1431 1430 1430 1429 1429 1428 1427 1427 1427 1426 1426 1426 1426 1427 1427 1427 1427 1427 1427 1427 1427 1426 1426 1426 1425 1425 1425 1425 1424 1424 1424 1424 1424 1424 1423 1423 1423 1423 1423 1422 1421 1421
1430 1429 1428 1428 1428 1427 1426 1425 1425 1424 1424 1424 1424 1425 1425 1425 1425 1426 1426 1426 1426 1425 1425 1425 1425 1424 1424 1424 1424 1424 1423 1422 1422 1423 1423 1423 1423 1423 1423 1422 1421 1420 1419
1428 1427 1427 1426 1426 1425 1424 1423 1423 1423 1422 1422 1423 1423 1423 1424 1424 1424 1425 1425 1424 1424 1424 1424 1424 1424 1423 1423 1423 1422 1422 1422 1422 1422 1422 1422 1422 1422 1422 1422 1421 1420 1419
1426 1426 1425 1425 1424 1423 1423 1422 1421 1421 1421 1421 1421 1421 1421 1422 1422 1423 1423 1423 1423 1423 1422 1422 1423 1423 1422 1422 1422 1422 1422 1422 1422 1422 1422 1422 1422 1422 1421 1421 1420 1420 1419
1425 1425 1424 1423 1423 1422 1421 1420 1420 1420 1420 1420 1420 1420 1420 1421 1421 1421 1421 1421 1422 1421 1421 1421 1421 1421 1422 1422 1422 1422 1422 1422 1422 1422 1422 1422 1422 1421 1421 1421 1420 1419 1418
1424 1423 1423 1422 1421 1421 1421 1420 1419 1419 1419 1419 1419 1419 1419 1419 1420 1420 1420 1420 1420 1420 1421 1421 1421 1421 1421 1421 1421 1421 1421 1421 1421 1421 1422 1422 1421 1421 1421 1420 1419 1418 1418
1422 1422 1421 1421 1420 1420 1420 1419 1418 1418 1418 1418 1418 1418 1418 1418 1419 1419 1419 1419 1420 1420 1420 1420 1420 1420 1421 1421 1421 1421 1421 1421 1421 1421 1421 1421 1420 1420 1420 1419 1418 1418 1417
1421 1421 1420 1420 1420 1419 1419 1418 1418 1417 1417 1417 1417 1417 1418 1418 1418 1418 1419 1419 1420 1420 1421 1421 1421 1421 1421 1421 1421 1421 1421 1421 1421 1421 1420 1420 1420 1420 1419 1418 1418 1417 1417